Flag for Denmark Weather past 2 weeks in Roskilde, Denmark

Now
61 °F

Scattered clouds.


Feels Like: 61 °F
Forecast: 56 / 71 °F
Wind: 13 mph from West

Location: Koebenhavn / Roskilde

Current Time: Jul 6, 2015 at 8:01:52 AM

Latest Report: Jul 6, 2015 at 7:20 AM


Visibility: N/A

Pressure: 29.89 "Hg

Humidity: 88%

Dew point: 57 °F

Location of RoskildeLocation

Historic Weather in Roskilde — Graph

°F

Roskilde temperature yesterday

Maximum temperature yesterday: 86 °F (at 2:20 PM)
Minimum temperature yesterday: 64 °F (at 1:50 AM)
Average temperature yesterday: 74 °F

Past Weeks' High & Low Weather Summary

 TemperatureHumidityPressure
High86 °F (Jul 5, 2:20 PM)100% (Jun 22, 7:50 AM)30.36 "Hg (Jun 22, 7:50 AM)
Low46 °F (Jun 23, 5:20 AM)38% (Jul 2, 3:50 PM)29.62 "Hg (Jun 22, 11:20 PM)
Average61 °F78%30.04 "Hg
* Reported Jun 21 6:20 AM — Jul 6 6:50 AM, Roskilde, Weather by CustomWeather, © 2015

Note: Actual official high and low records may vary slightly from our data, if they occured in-between our weather recording intervals... More about our weather records

Advertising

Roskilde weather history for previous 24 hours

 ConditionsComfort  
Time TempWeatherWind HumidityBarometerVisibility
6:50 AM
Mon, Jul 6
61 °FOvercast.14 mph88%29.89 "HgN/A
6:20 AM61 °FBroken clouds.13 mph94%29.89 "HgN/A
5:20 AM63 °FPartly cloudy.15 mph88%29.86 "HgN/A
4:50 AM64 °FPartly cloudy.13 mph88%29.86 "HgN/A
4:20 AM64 °FPassing clouds.14 mph94%29.86 "HgN/A
3:50 AM64 °FPassing clouds.10 mph94%29.86 "HgN/A
3:20 AM64 °FPassing clouds.7 mph94%29.86 "HgN/A
2:50 AM64 °FPassing clouds.5 mph94%29.83 "HgN/A
2:20 AM64 °FPassing clouds.6 mph100%29.83 "HgN/A
1:50 AM66 °FRain. Passing clouds.9 mph94%29.86 "HgN/A
1:20 AM66 °FLight rain. Partly cloudy.14 mph100%29.86 "HgN/A
12:50 AM68 °FRain. Partly cloudy.16 mph94%29.89 "Hg3 mi
12:20 AM66 °FRain showers. Passing clouds.14 mph94%29.89 "Hg5 mi
11:50 PM
Sun, Jul 5
68 °FSprinkles. Partly cloudy.9 mph88%29.86 "HgN/A
11:20 PM66 °FLight rain. Passing clouds.9 mph88%29.83 "HgN/A
10:50 PM68 °FSprinkles. Broken clouds.8 mph83%29.86 "HgN/A
10:20 PM68 °FRain showers. Partly sunny.9 mph83%29.89 "Hg3 mi
9:50 PM68 °FBroken clouds.7 mph78%29.89 "HgN/A
9:20 PM70 °FPartly sunny.8 mph73%29.89 "HgN/A
8:50 PM72 °FPartly sunny.6 mph73%29.89 "HgN/A
8:20 PM72 °FBroken clouds.7 mph73%29.89 "HgN/A
7:50 PM75 °FPassing clouds.7 mph69%29.92 "HgN/A
7:20 PM77 °FWarm.9 mph61%29.92 "HgN/A
6:50 PM79 °FWarm.8 mph61%29.92 "HgN/A
6:20 PM81 °FPassing clouds.8 mph58%29.95 "HgN/A
5:50 PM81 °FPassing clouds.10 mph54%29.95 "HgN/A
5:20 PM82 °FPassing clouds.10 mph55%29.98 "HgN/A
4:50 PM81 °FPassing clouds.10 mph51%29.98 "HgN/A
4:20 PM82 °FWarm.9 mph45%29.98 "HgN/A
3:50 PM84 °FWarm.8 mph43%30.01 "HgN/A
3:20 PM84 °FWarm.7 mph45%30.01 "HgN/A
2:50 PM84 °FWarm.6 mph48%30.01 "HgN/A
2:20 PM86 °FPassing clouds.6 mph46%30.01 "HgN/A
1:50 PM84 °FWarm.6 mph43%30.01 "HgN/A
1:20 PM84 °FWarm.6 mph43%30.01 "HgN/A
12:50 PM84 °FWarm.5 mph45%30.04 "HgN/A
12:20 PM84 °FWarm.2 mph45%30.04 "HgN/A
11:50 AM82 °FWarm.3 mph45%30.04 "HgN/A
11:20 AM82 °FPassing clouds.3 mph48%30.04 "HgN/A
10:50 AM81 °FBroken clouds.2 mph51%30.04 "HgN/A
10:20 AM79 °FPartly sunny.2 mph58%30.04 "HgN/A
9:50 AM79 °FPassing clouds.5 mph51%30.07 "HgN/A
9:20 AM79 °FPassing clouds.3 mph51%30.07 "HgN/A
8:50 AM77 °FBroken clouds.No wind61%30.07 "HgN/A
8:20 AM75 °FPassing clouds.No wind69%30.07 "HgN/A
Weather by CustomWeather, © 2015

See weather overviewHow to use our weather pages